Location: *
(34.6903°N, 135.5184°E)
Time: 09:20:03
(UTC+00:00)

CZ-2C R/B - Pass Details

Date: 22 September 2019
Orbit: 669 x 784 km, 98.1° (Epoch: 14 October)

Event Time Altitude Azimuth Distance (km) Brightness Sun altitude
Rises 18:43:28 0° 23° (NNE) 3,176 6.3 -25.5°
Reaches altitude 10° 18:45:55 10° 32° (NNE) 2,267 5.6 -25.1°
Maximum altitude 18:50:29 35° 98° (E) 1,212 4.0 -24.2°
Drops below altitude 10° 18:55:08 10° 164° (SSE) 2,309 5.0 -23.3°
Sets 18:57:38 0° 172° (S) 3,242 5.7 -22.8°
